Flag for Guatemala Weather past 2 weeks in Guatemala, Guatemala

Now
77 °F

Passing clouds.


Feels Like: 79 °F
Forecast: 62 / 82 °F
Wind: 14 mph from Northeast

Location: Guatemala Aeropuertola Aurora


UV Index: 10 (Very high)

Visibility: N/A


Pressure: 30.21 "Hg

Humidity: 51%

Dew point: 57 °F

Location of GuatemalaLocation

Historic Weather in Guatemala

°F

Guatemala temperature yesterday

Maximum temperature yesterday: 81 °F (at 1:00 PM)
Minimum temperature yesterday: 61 °F (at 5:00 AM)
Average temperature yesterday: 70 °F

Past Weeks' High & Low Weather Summary

 TemperatureHumidityPressure
High82 °F (Apr 1, 3:00 PM)94% (Apr 2, 3:00 AM)30.45 "Hg (Apr 2, 3:00 AM)
Low55 °F (Apr 9, 12:00 AM)24% (Apr 12, 4:00 PM)30.12 "Hg (Apr 5, 4:00 PM)
Average69 °F70%30.25 "Hg
* Reported Apr 1 12:00 Noon — Apr 16 12:00 Noon, Guatemala, Weather by CustomWeather, © 2014

Note: Actual official high and low records may vary slightly from our data, if they occured in-between our weather recording intervals... More about our weather records

Advertising

Historic Weather Conditions — Data for Previous 24 hours

 ConditionsComfort  
Time TempWeatherWind HumidityBarometerVisibility
12:00 PM
Apr 16
73 °FPassing clouds.12 mph53%30.27 "HgN/A
11:00 AM70 °FScattered clouds.12 mph60%30.30 "HgN/A
10:00 AM64 °FOvercast.14 mph83%30.30 "HgN/A
9:05 AMN/ADrizzle.18 mphN/AN/A2 mi
9:00 AM63 °FDrizzle. Partly sunny.16 mph88%30.30 "Hg4 mi
8:00 AM64 °FDrizzle. Broken clouds.12 mph83%30.30 "HgN/A
7:00 AM64 °FPartly sunny.12 mph78%30.27 "HgN/A
6:00 AM64 °FPartly sunny.12 mph73%30.24 "HgN/A
5:00 AM64 °FPassing clouds.12 mph73%30.24 "HgN/A
4:00 AM64 °FPassing clouds.14 mph73%30.21 "HgN/A
3:00 AM66 °FPassing clouds.14 mph68%30.24 "HgN/A
2:00 AM64 °FPassing clouds.9 mph73%30.24 "HgN/A
1:00 AM66 °FPassing clouds.12 mph73%30.24 "HgN/A
12:00 AM66 °FPassing clouds.5 mph73%30.24 "HgN/A
11:00 PM
Apr 15
68 °FPassing clouds.5 mph69%30.27 "HgN/A
10:00 PM68 °FClear.7 mph69%30.27 "Hg10 mi
9:00 PM70 °FClear.9 mph64%30.24 "Hg10 mi
8:00 PM72 °FClear.14 mph57%30.21 "Hg10 mi
7:00 PM73 °FPassing clouds.14 mph53%30.18 "HgN/A
5:00 PM79 °FPassing clouds.21 mph42%30.12 "HgN/A
4:00 PM81 °FScattered clouds.18 mph39%30.12 "HgN/A
3:00 PM81 °FScattered clouds.18 mph42%30.15 "HgN/A
2:00 PM81 °FScattered clouds.21 mph37%30.18 "HgN/A
1:00 PM81 °FScattered clouds.12 mph42%30.21 "Hg5 mi
Weather by CustomWeather, © 2014

See weather overview